Time,TemperatureF,DewpointF,PressureIn,WindDirection,WindDirectionDegrees,WindSpeedMPH,WindSpeedGustMPH,Humidity,HourlyPrecipIn,Conditions,Clouds,dailyrainin,SoftwareType,DateUTC
2013-01-17 00:05:00,33.3,29.3,30.25,NNW,330,7.0,18.0,85,0.00,,,0.00,Wunderground v.1.15,2013-01-17 06:05:00,
2013-01-17 00:15:00,32.7,29.3,30.26,NNW,328,7.0,18.0,87,0.00,,,0.00,Wunderground v.1.15,2013-01-17 06:15:00,
2013-01-17 00:20:00,32.5,29.1,30.27,NW,322,7.0,7.0,87,0.00,,,0.00,Wunderground v.1.15,2013-01-17 06:20:00,
2013-01-17 00:30:00,32.5,29.1,30.28,NW,321,4.0,4.0,87,0.00,,,0.00,Wunderground v.1.15,2013-01-17 06:30:00,
2013-01-17 00:35:00,32.6,29.4,30.28,NW,321,4.0,6.0,88,0.00,,,0.00,Wunderground v.1.15,2013-01-17 06:35:00,
2013-01-17 00:40:00,32.7,29.5,30.29,NW,321,5.0,5.0,88,0.00,,,0.00,Wunderground v.1.15,2013-01-17 06:40:00,
2013-01-17 00:50:00,32.4,29.0,30.29,NW,321,3.0,3.0,87,0.00,,,0.00,Wunderground v.1.15,2013-01-17 06:50:00,
2013-01-17 00:55:00,32.3,29.1,30.29,NW,321,3.0,18.0,88,0.00,,,0.00,Wunderground v.1.15,2013-01-17 06:55:00,
2013-01-17 01:00:00,32.0,28.8,30.30,NW,321,3.0,18.0,88,0.00,,,0.00,Wunderground v.1.15,2013-01-17 07:00:00,
2013-01-17 01:05:00,32.0,29.1,30.29,NW,319,3.0,18.0,89,0.00,,,0.00,Wunderground v.1.15,2013-01-17 07:05:00,
2013-01-17 01:10:00,32.2,29.3,30.30,NW,323,4.0,18.0,89,0.00,,,0.00,Wunderground v.1.15,2013-01-17 07:10:00,
2013-01-17 01:20:00,32.3,29.4,30.31,NW,323,5.0,18.0,89,0.00,,,0.00,Wunderground v.1.15,2013-01-17 07:20:00,
2013-01-17 01:25:00,32.1,28.9,30.31,NW,323,6.0,18.0,88,0.00,,,0.00,Wunderground v.1.15,2013-01-17 07:25:00,
2013-01-17 01:35:00,31.9,29.0,30.32,NW,315,5.0,18.0,89,0.00,,,0.00,Wunderground v.1.15,2013-01-17 07:35:00,
2013-01-17 01:40:00,31.8,28.9,30.32,NW,317,5.0,5.0,89,0.00,,,0.00,Wunderground v.1.15,2013-01-17 07:40:00,
2013-01-17 01:45:00,31.4,28.3,30.32,NW,319,5.0,18.0,88,0.00,,,0.00,Wunderground v.1.15,2013-01-17 07:45:00,
2013-01-17 01:50:00,30.8,27.9,30.32,NW,319,5.0,18.0,89,0.00,,,0.00,Wunderground v.1.15,2013-01-17 07:50:00,
2013-01-17 01:55:00,30.7,28.1,30.32,NW,319,3.0,18.0,90,0.00,,,0.00,Wunderground v.1.15,2013-01-17 07:55:00,
2013-01-17 02:05:00,30.3,27.4,30.33,NW,320,1.0,18.0,89,0.00,,,0.00,Wunderground v.1.15,2013-01-17 08:05:00,
2013-01-17 02:10:00,30.0,27.4,30.33,NW,319,1.0,18.0,90,0.00,,,0.00,Wunderground v.1.15,2013-01-17 08:10:00,
2013-01-17 02:20:00,29.7,27.1,30.33,NW,319,1.0,18.0,90,0.00,,,0.00,Wunderground v.1.15,2013-01-17 08:20:00,
2013-01-17 02:25:00,29.5,26.9,30.33,NW,320,1.0,18.0,90,0.00,,,0.00,Wunderground v.1.15,2013-01-17 08:25:00,
2013-01-17 02:30:00,29.0,26.4,30.33,NW,320,2.0,18.0,90,0.00,,,0.00,Wunderground v.1.15,2013-01-17 08:30:00,
2013-01-17 02:35:00,28.9,26.6,30.33,NW,319,1.0,18.0,91,0.00,,,0.00,Wunderground v.1.15,2013-01-17 08:35:00,
2013-01-17 02:40:00,28.8,26.5,30.33,NW,319,1.0,18.0,91,0.00,,,0.00,Wunderground v.1.15,2013-01-17 08:40:00,
2013-01-17 02:45:00,28.7,26.4,30.33,NW,320,2.0,18.0,91,0.00,,,0.00,Wunderground v.1.15,2013-01-17 08:45:00,
2013-01-17 02:50:00,28.7,26.7,30.33,NW,320,4.0,18.0,92,0.00,,,0.00,Wunderground v.1.15,2013-01-17 08:50:00,
2013-01-17 02:55:00,28.6,26.6,30.33,NW,320,4.0,18.0,92,0.00,,,0.00,Wunderground v.1.15,2013-01-17 08:55:00,
2013-01-17 03:05:00,28.4,26.4,30.34,NW,320,2.0,18.0,92,0.00,,,0.00,Wunderground v.1.15,2013-01-17 09:05:00,
2013-01-17 03:10:00,28.5,26.7,30.34,NW,320,2.0,18.0,93,0.00,,,0.00,Wunderground v.1.15,2013-01-17 09:10:00,
2013-01-17 03:20:00,28.7,26.9,30.35,NW,320,3.0,18.0,93,0.00,,,0.00,Wunderground v.1.15,2013-01-17 09:20:00,
2013-01-17 03:25:00,28.6,26.8,30.35,NW,320,3.0,18.0,93,0.00,,,0.00,Wunderground v.1.15,2013-01-17 09:25:00,
2013-01-17 03:30:00,28.6,26.8,30.35,NW,320,2.0,2.0,93,0.00,,,0.00,Wunderground v.1.15,2013-01-17 09:30:00,
2013-01-17 03:40:00,28.8,27.0,30.35,NW,320,1.0,1.0,93,0.00,,,0.00,Wunderground v.1.15,2013-01-17 09:40:00,
2013-01-17 03:45:00,29.0,27.2,30.36,NW,320,0.0,18.0,93,0.00,,,0.00,Wunderground v.1.15,2013-01-17 09:45:00,
2013-01-17 03:55:00,29.4,27.9,30.36,NW,320,1.0,18.0,94,0.00,,,0.00,Wunderground v.1.15,2013-01-17 09:55:00,
2013-01-17 04:00:00,29.6,28.1,30.36,NW,320,1.0,18.0,94,0.00,,,0.00,Wunderground v.1.15,2013-01-17 10:00:00,
2013-01-17 04:05:00,29.7,28.2,30.36,NW,320,1.0,18.0,94,0.00,,,0.00,Wunderground v.1.15,2013-01-17 10:05:00,
2013-01-17 04:10:00,29.8,28.3,30.36,NW,320,1.0,18.0,94,0.00,,,0.00,Wunderground v.1.15,2013-01-17 10:10:00,
2013-01-17 04:15:00,29.6,27.8,30.36,NW,320,1.0,18.0,93,0.00,,,0.00,Wunderground v.1.15,2013-01-17 10:15:00,
2013-01-17 04:20:00,29.5,27.7,30.35,NW,320,0.0,18.0,93,0.00,,,0.00,Wunderground v.1.15,2013-01-17 10:20:00,
2013-01-17 04:25:00,29.4,27.6,30.36,NW,320,0.0,18.0,93,0.00,,,0.00,Wunderground v.1.15,2013-01-17 10:25:00,
2013-01-17 04:30:00,29.3,27.8,30.36,NW,320,0.0,18.0,94,0.00,,,0.00,Wunderground v.1.15,2013-01-17 10:30:00,
2013-01-17 04:35:00,29.3,27.8,30.36,NW,320,0.0,18.0,94,0.00,,,0.00,Wunderground v.1.15,2013-01-17 10:35:00,
2013-01-17 04:45:00,29.2,27.7,30.36,NW,320,0.0,18.0,94,0.00,,,0.00,Wunderground v.1.15,2013-01-17 10:45:00,
2013-01-17 04:50:00,29.1,27.6,30.36,NW,320,0.0,18.0,94,0.00,,,0.00,Wunderground v.1.15,2013-01-17 10:50:00,
2013-01-17 04:55:00,29.1,27.6,30.36,NW,320,0.0,18.0,94,0.00,,,0.00,Wunderground v.1.15,2013-01-17 10:55:00,
2013-01-17 05:00:00,29.2,27.7,30.37,NW,320,0.0,18.0,94,0.00,,,0.00,Wunderground v.1.15,2013-01-17 11:00:00,
2013-01-17 05:10:00,29.3,27.8,30.36,NW,320,0.0,18.0,94,0.00,,,0.00,Wunderground v.1.15,2013-01-17 11:10:00,
2013-01-17 05:15:00,29.3,27.8,30.36,NW,322,2.0,18.0,94,0.00,,,0.00,Wunderground v.1.15,2013-01-17 11:15:00,
2013-01-17 05:25:00,29.4,27.9,30.37,NW,322,3.0,18.0,94,0.00,,,0.00,Wunderground v.1.15,2013-01-17 11:25:00,
2013-01-17 05:30:00,29.3,27.8,30.36,NW,322,3.0,3.0,94,0.00,,,0.00,Wunderground v.1.15,2013-01-17 11:30:00,
2013-01-17 05:35:00,29.1,27.6,30.37,NW,322,3.0,4.0,94,0.00,,,0.00,Wunderground v.1.15,2013-01-17 11:35:00,
2013-01-17 05:40:00,28.9,27.4,30.37,NW,322,3.0,3.0,94,0.00,,,0.00,Wunderground v.1.15,2013-01-17 11:40:00,
2013-01-17 05:45:00,28.7,27.2,30.36,NW,322,3.0,18.0,94,0.00,,,0.00,Wunderground v.1.15,2013-01-17 11:45:00,
2013-01-17 05:55:00,28.5,27.0,30.37,NW,322,2.0,18.0,94,0.00,,,0.00,Wunderground v.1.15,2013-01-17 11:55:00,
2013-01-17 06:05:00,28.1,26.6,30.37,NW,322,2.0,18.0,94,0.00,,,0.00,Wunderground v.1.15,2013-01-17 12:05:00,
2013-01-17 06:15:00,27.7,26.2,30.38,NW,322,0.0,18.0,94,0.00,,,0.00,Wunderground v.1.15,2013-01-17 12:15:00,
2013-01-17 06:25:00,27.5,26.0,30.37,NW,322,0.0,18.0,94,0.00,,,0.00,Wunderground v.1.15,2013-01-17 12:25:00,
2013-01-17 06:30:00,27.3,25.8,30.37,NW,322,0.0,18.0,94,0.00,,,0.00,Wunderground v.1.15,2013-01-17 12:30:00,
2013-01-17 06:40:00,26.9,25.4,30.37,NW,322,1.0,18.0,94,0.00,,,0.00,Wunderground v.1.15,2013-01-17 12:40:00,
2013-01-17 06:45:00,26.8,25.6,30.37,NW,322,3.0,18.0,95,0.00,,,0.00,Wunderground v.1.15,2013-01-17 12:45:00,
2013-01-17 06:50:00,26.7,25.5,30.37,SSW,213,3.0,3.0,95,0.00,,,0.00,Wunderground v.1.15,2013-01-17 12:50:00,
2013-01-17 07:00:00,26.8,25.6,30.37,SSW,213,2.0,18.0,95,0.00,,,0.00,Wunderground v.1.15,2013-01-17 13:00:00,
2013-01-17 07:05:00,26.7,25.5,30.38,SSW,213,1.0,18.0,95,0.00,,,0.00,Wunderground v.1.15,2013-01-17 13:05:00,
2013-01-17 07:15:00,26.7,25.5,30.38,SSW,213,0.0,18.0,95,0.00,,,0.00,Wunderground v.1.15,2013-01-17 13:15:00,
2013-01-17 07:20:00,26.6,25.4,30.38,SSW,213,1.0,18.0,95,0.00,,,0.00,Wunderground v.1.15,2013-01-17 13:20:00,
2013-01-17 07:25:00,26.6,25.4,30.38,SSW,213,1.0,18.0,95,0.00,,,0.00,Wunderground v.1.15,2013-01-17 13:25:00,
2013-01-17 07:30:00,26.6,25.4,30.38,SSW,213,0.0,18.0,95,0.00,,,0.00,Wunderground v.1.15,2013-01-17 13:30:00,
2013-01-17 07:40:00,26.4,25.2,30.38,SSW,213,1.0,18.0,95,0.00,,,0.00,Wunderground v.1.15,2013-01-17 13:40:00,
2013-01-17 07:50:00,26.2,25.0,30.39,SSW,213,2.0,18.0,95,0.00,,,0.00,Wunderground v.1.15,2013-01-17 13:50:00,
2013-01-17 07:55:00,26.2,25.0,30.39,SSW,213,1.0,18.0,95,0.00,,,0.00,Wunderground v.1.15,2013-01-17 13:55:00,
2013-01-17 08:00:00,26.1,24.9,30.39,SSW,213,0.0,18.0,95,0.00,,,0.00,Wunderground v.1.15,2013-01-17 14:00:00,
2013-01-17 08:05:00,26.0,24.8,30.40,SSW,213,0.0,18.0,95,0.00,,,0.00,Wunderground v.1.15,2013-01-17 14:05:00,
2013-01-17 08:10:00,26.0,24.8,30.40,SSW,213,0.0,18.0,95,0.00,,,0.00,Wunderground v.1.15,2013-01-17 14:10:00,
2013-01-17 08:15:00,26.0,24.8,30.40,SSW,213,0.0,18.0,95,0.00,,,0.00,Wunderground v.1.15,2013-01-17 14:15:00,
2013-01-17 08:25:00,26.0,24.8,30.41,SSW,213,0.0,18.0,95,0.00,,,0.00,Wunderground v.1.15,2013-01-17 14:25:00,
2013-01-17 08:35:00,26.1,24.9,30.41,SSW,213,0.0,18.0,95,0.00,,,0.00,Wunderground v.1.15,2013-01-17 14:35:00,
2013-01-17 08:40:00,26.0,24.8,30.41,SSW,213,1.0,1.0,95,0.00,,,0.00,Wunderground v.1.15,2013-01-17 14:40:00,
2013-01-17 08:45:00,26.0,24.8,30.42,SSW,213,1.0,18.0,95,0.00,,,0.00,Wunderground v.1.15,2013-01-17 14:45:00,
2013-01-17 08:50:00,26.1,24.9,30.42,SSW,213,1.0,18.0,95,0.00,,,0.00,Wunderground v.1.15,2013-01-17 14:50:00,
2013-01-17 09:00:00,26.3,25.1,30.43,SSW,213,1.0,18.0,95,0.00,,,0.00,Wunderground v.1.15,2013-01-17 15:00:00,
2013-01-17 09:05:00,26.3,25.1,30.43,SSW,213,1.0,18.0,95,0.00,,,0.00,Wunderground v.1.15,2013-01-17 15:05:00,
2013-01-17 09:10:00,26.5,25.3,30.43,SSW,213,1.0,18.0,95,0.00,,,0.00,Wunderground v.1.15,2013-01-17 15:10:00,
2013-01-17 09:15:00,26.6,25.4,30.44,SSW,213,1.0,18.0,95,0.00,,,0.00,Wunderground v.1.15,2013-01-17 15:15:00,
2013-01-17 09:25:00,26.8,25.8,30.45,SSW,213,1.0,18.0,96,0.00,,,0.00,Wunderground v.1.15,2013-01-17 15:25:00,
2013-01-17 09:35:00,27.1,26.1,30.45,SSW,198,2.0,18.0,96,0.00,,,0.00,Wunderground v.1.15,2013-01-17 15:35:00,
2013-01-17 09:40:00,27.3,26.3,30.45,SSW,199,3.0,18.0,96,0.00,,,0.00,Wunderground v.1.15,2013-01-17 15:40:00,
2013-01-17 09:45:00,27.2,26.0,30.45,SSW,198,3.0,18.0,95,0.00,,,0.00,Wunderground v.1.15,2013-01-17 15:45:00,
2013-01-17 09:50:00,27.2,26.0,30.45,SSW,192,3.0,3.0,95,0.00,,,0.00,Wunderground v.1.15,2013-01-17 15:50:00,
2013-01-17 09:55:00,27.4,26.4,30.46,South,188,3.0,18.0,96,0.00,,,0.00,Wunderground v.1.15,2013-01-17 15:55:00,
2013-01-17 10:05:00,27.8,26.8,30.46,SSE,167,4.0,6.0,96,0.00,,,0.00,Wunderground v.1.15,2013-01-17 16:05:00,
2013-01-17 10:10:00,27.8,26.8,30.46,SSE,168,3.0,3.0,96,0.00,,,0.00,Wunderground v.1.15,2013-01-17 16:10:00,
2013-01-17 10:15:00,27.9,26.9,30.46,SSE,167,3.0,5.0,96,0.00,,,0.00,Wunderground v.1.15,2013-01-17 16:15:00,
2013-01-17 10:20:00,28.1,27.1,30.47,SSE,167,3.0,18.0,96,0.00,,,0.00,Wunderground v.1.15,2013-01-17 16:20:00,
2013-01-17 10:30:00,28.4,27.4,30.46,SSE,167,3.0,18.0,96,0.00,,,0.00,Wunderground v.1.15,2013-01-17 16:30:00,
2013-01-17 10:40:00,28.7,27.7,30.46,SSE,164,4.0,18.0,96,0.00,,,0.00,Wunderground v.1.15,2013-01-17 16:40:00,
2013-01-17 10:45:00,28.8,27.8,30.46,SSE,162,4.0,18.0,96,0.00,,,0.00,Wunderground v.1.15,2013-01-17 16:45:00,
2013-01-17 10:50:00,28.8,27.8,30.45,SSE,157,4.0,4.0,96,0.00,,,0.00,Wunderground v.1.15,2013-01-17 16:50:00,
2013-01-17 10:55:00,28.9,27.9,30.46,SSE,157,3.0,18.0,96,0.00,,,0.00,Wunderground v.1.15,2013-01-17 16:55:00,
2013-01-17 11:00:00,29.0,28.0,30.46,SSE,157,3.0,3.0,96,0.00,,,0.00,Wunderground v.1.15,2013-01-17 17:00:00,
2013-01-17 11:05:00,29.3,28.3,30.46,SSE,157,3.0,18.0,96,0.00,,,0.00,Wunderground v.1.15,2013-01-17 17:05:00,
2013-01-17 11:15:00,29.9,28.9,30.45,SSE,157,3.0,18.0,96,0.00,,,0.00,Wunderground v.1.15,2013-01-17 17:15:00,
2013-01-17 11:20:00,30.1,29.1,30.45,SSE,157,3.0,3.0,96,0.00,,,0.00,Wunderground v.1.15,2013-01-17 17:20:00,
2013-01-17 11:25:00,30.4,29.4,30.45,SSE,157,2.0,18.0,96,0.00,,,0.00,Wunderground v.1.15,2013-01-17 17:25:00,
2013-01-17 11:35:00,31.2,30.4,30.45,SSE,157,1.0,18.0,97,0.00,,,0.00,Wunderground v.1.15,2013-01-17 17:35:00,
2013-01-17 11:40:00,31.8,31.0,30.45,SSE,157,1.0,18.0,97,0.00,,,0.00,Wunderground v.1.15,2013-01-17 17:40:00,
2013-01-17 11:50:00,32.4,31.6,30.44,SSE,167,2.0,18.0,97,0.00,,,0.00,Wunderground v.1.15,2013-01-17 17:50:00,
2013-01-17 11:55:00,32.8,32.0,30.43,SSE,167,3.0,18.0,97,0.00,,,0.00,Wunderground v.1.15,2013-01-17 17:55:00,
2013-01-17 12:00:00,33.1,32.3,30.43,SSE,167,3.0,3.0,97,0.00,,,0.00,Wunderground v.1.15,2013-01-17 18:00:00,
2013-01-17 12:05:00,33.6,32.8,30.42,South,173,3.0,4.0,97,0.00,,,0.00,Wunderground v.1.15,2013-01-17 18:05:00,
2013-01-17 12:10:00,34.1,33.3,30.42,South,173,2.0,18.0,97,0.00,,,0.00,Wunderground v.1.15,2013-01-17 18:10:00,
2013-01-17 12:20:00,34.9,34.1,30.42,South,175,2.0,18.0,97,0.00,,,0.00,Wunderground v.1.15,2013-01-17 18:20:00,
2013-01-17 12:25:00,34.9,34.1,30.42,South,176,2.0,18.0,97,0.00,,,0.00,Wunderground v.1.15,2013-01-17 18:25:00,
2013-01-17 12:30:00,35.3,34.5,30.41,South,177,2.0,18.0,97,0.00,,,0.00,Wunderground v.1.15,2013-01-17 18:30:00,
2013-01-17 12:40:00,35.8,35.0,30.41,South,177,2.0,18.0,97,0.00,,,0.00,Wunderground v.1.15,2013-01-17 18:40:00,
2013-01-17 12:45:00,35.8,35.0,30.41,South,177,1.0,18.0,97,0.00,,,0.00,Wunderground v.1.15,2013-01-17 18:45:00,
2013-01-17 12:50:00,36.2,35.4,30.41,South,177,2.0,2.0,97,0.00,,,0.00,Wunderground v.1.15,2013-01-17 18:50:00,
2013-01-17 12:55:00,36.9,36.1,30.42,South,176,1.0,18.0,97,0.00,,,0.00,Wunderground v.1.15,2013-01-17 18:55:00,
2013-01-17 13:00:00,37.5,36.7,30.41,South,176,0.0,18.0,97,0.00,,,0.00,Wunderground v.1.15,2013-01-17 19:00:00,
2013-01-17 13:05:00,37.9,37.1,30.41,South,177,1.0,18.0,97,0.00,,,0.00,Wunderground v.1.15,2013-01-17 19:05:00,
2013-01-17 13:10:00,38.2,37.2,30.41,South,177,1.0,18.0,96,0.00,,,0.00,Wunderground v.1.15,2013-01-17 19:10:00,
2013-01-17 13:15:00,38.7,37.7,30.40,South,177,0.0,18.0,96,0.00,,,0.00,Wunderground v.1.15,2013-01-17 19:15:00,
2013-01-17 13:20:00,39.4,38.1,30.40,South,177,0.0,18.0,95,0.00,,,0.00,Wunderground v.1.15,2013-01-17 19:20:00,
2013-01-17 13:30:00,40.3,37.9,30.41,WSW,247,1.0,18.0,91,0.00,,,0.00,Wunderground v.1.15,2013-01-17 19:30:00,
2013-01-17 13:40:00,40.7,37.7,30.40,WSW,251,1.0,1.0,89,0.00,,,0.00,Wunderground v.1.15,2013-01-17 19:40:00,
2013-01-17 13:45:00,40.9,36.7,30.40,NW,313,2.0,2.0,85,0.00,,,0.00,Wunderground v.1.15,2013-01-17 19:45:00,
2013-01-17 13:50:00,40.8,35.4,30.40,NW,313,3.0,18.0,81,0.00,,,0.00,Wunderground v.1.15,2013-01-17 19:50:00,
2013-01-17 13:55:00,41.0,35.9,30.39,NW,313,2.0,18.0,82,0.00,,,0.00,Wunderground v.1.15,2013-01-17 19:55:00,
2013-01-17 14:00:00,41.6,35.9,30.39,NW,313,1.0,18.0,80,0.00,,,0.00,Wunderground v.1.15,2013-01-17 20:00:00,
2013-01-17 14:05:00,42.3,35.6,30.39,NW,313,1.0,18.0,77,0.00,,,0.00,Wunderground v.1.15,2013-01-17 20:05:00,
2013-01-17 14:10:00,42.5,34.5,30.39,NW,314,1.0,18.0,73,0.00,,,0.00,Wunderground v.1.15,2013-01-17 20:10:00,
2013-01-17 14:15:00,42.5,34.1,30.38,NW,322,2.0,18.0,72,0.00,,,0.00,Wunderground v.1.15,2013-01-17 20:15:00,
2013-01-17 14:20:00,43.0,34.9,30.39,NW,322,2.0,2.0,73,0.00,,,0.00,Wunderground v.1.15,2013-01-17 20:20:00,
2013-01-17 14:25:00,43.3,34.2,30.39,NW,322,1.0,18.0,70,0.00,,,0.00,Wunderground v.1.15,2013-01-17 20:25:00,
2013-01-17 14:35:00,43.6,34.5,30.39,WNW,297,1.0,18.0,70,0.00,,,0.00,Wunderground v.1.15,2013-01-17 20:35:00,
2013-01-17 14:45:00,44.2,35.0,30.39,WNW,296,1.0,18.0,70,0.00,,,0.00,Wunderground v.1.15,2013-01-17 20:45:00,
2013-01-17 14:50:00,44.7,35.1,30.39,WNW,296,1.0,18.0,69,0.00,,,0.00,Wunderground v.1.15,2013-01-17 20:50:00,
2013-01-17 14:55:00,45.0,34.7,30.38,WNW,296,1.0,18.0,67,0.00,,,0.00,Wunderground v.1.15,2013-01-17 20:55:00,
2013-01-17 15:00:00,44.7,34.0,30.39,WNW,296,1.0,18.0,66,0.00,,,0.00,Wunderground v.1.15,2013-01-17 21:00:00,
2013-01-17 15:05:00,44.5,33.8,30.38,WNW,296,1.0,18.0,66,0.00,,,0.00,Wunderground v.1.15,2013-01-17 21:05:00,
2013-01-17 15:10:00,44.6,34.7,30.38,WNW,296,1.0,18.0,68,0.00,,,0.00,Wunderground v.1.15,2013-01-17 21:10:00,
2013-01-17 15:15:00,45.0,34.3,30.38,WNW,296,1.0,18.0,66,0.00,,,0.00,Wunderground v.1.15,2013-01-17 21:15:00,
2013-01-17 15:20:00,45.4,34.3,30.38,West,271,1.0,18.0,65,0.00,,,0.00,Wunderground v.1.15,2013-01-17 21:20:00,
2013-01-17 15:25:00,45.2,34.1,30.39,West,271,1.0,18.0,65,0.00,,,0.00,Wunderground v.1.15,2013-01-17 21:25:00,
2013-01-17 15:30:00,44.9,34.2,30.38,West,277,2.0,18.0,66,0.00,,,0.00,Wunderground v.1.15,2013-01-17 21:30:00,
2013-01-17 15:35:00,44.9,34.6,30.38,West,277,2.0,18.0,67,0.00,,,0.00,Wunderground v.1.15,2013-01-17 21:35:00,
2013-01-17 15:40:00,45.5,34.4,30.38,West,278,1.0,18.0,65,0.00,,,0.00,Wunderground v.1.15,2013-01-17 21:40:00,
2013-01-17 15:50:00,45.4,34.3,30.38,West,278,1.0,1.0,65,0.00,,,0.00,Wunderground v.1.15,2013-01-17 21:50:00,
2013-01-17 15:55:00,45.5,34.0,30.38,West,278,1.0,18.0,64,0.00,,,0.00,Wunderground v.1.15,2013-01-17 21:55:00,
2013-01-17 16:00:00,45.6,34.5,30.38,West,278,0.0,18.0,65,0.00,,,0.00,Wunderground v.1.15,2013-01-17 22:00:00,
2013-01-17 16:05:00,45.8,33.9,30.38,West,278,0.0,18.0,63,0.00,,,0.00,Wunderground v.1.15,2013-01-17 22:05:00,
2013-01-17 16:10:00,45.9,33.6,30.38,West,278,0.0,18.0,62,0.00,,,0.00,Wunderground v.1.15,2013-01-17 22:10:00,
2013-01-17 16:20:00,45.4,33.5,30.38,West,278,1.0,18.0,63,0.00,,,0.00,Wunderground v.1.15,2013-01-17 22:20:00,
2013-01-17 16:25:00,45.4,34.3,30.38,West,278,1.0,18.0,65,0.00,,,0.00,Wunderground v.1.15,2013-01-17 22:25:00,
2013-01-17 16:30:00,45.6,33.7,30.38,West,278,0.0,18.0,63,0.00,,,0.00,Wunderground v.1.15,2013-01-17 22:30:00,
2013-01-17 16:35:00,45.3,33.8,30.38,West,278,0.0,18.0,64,0.00,,,0.00,Wunderground v.1.15,2013-01-17 22:35:00,
2013-01-17 16:45:00,44.9,33.8,30.38,West,278,0.0,18.0,65,0.00,,,0.00,Wunderground v.1.15,2013-01-17 22:45:00,
2013-01-17 16:55:00,44.4,33.4,30.39,West,278,1.0,18.0,65,0.00,,,0.00,Wunderground v.1.15,2013-01-17 22:55:00,
2013-01-17 17:00:00,43.9,32.9,30.39,West,278,2.0,18.0,65,0.00,,,0.00,Wunderground v.1.15,2013-01-17 23:00:00,
2013-01-17 17:05:00,43.2,32.6,30.39,West,278,3.0,18.0,66,0.00,,,0.00,Wunderground v.1.15,2013-01-17 23:05:00,
2013-01-17 17:10:00,42.5,32.3,30.39,West,278,1.0,18.0,67,0.00,,,0.00,Wunderground v.1.15,2013-01-17 23:10:00,
2013-01-17 17:15:00,41.7,31.9,30.39,West,278,1.0,18.0,68,0.00,,,0.00,Wunderground v.1.15,2013-01-17 23:15:00,
2013-01-17 17:25:00,40.4,31.7,30.39,West,278,1.0,18.0,71,0.00,,,0.00,Wunderground v.1.15,2013-01-17 23:25:00,
2013-01-17 17:30:00,40.0,32.0,30.39,South,186,1.0,1.0,73,0.00,,,0.00,Wunderground v.1.15,2013-01-17 23:30:00,
2013-01-17 17:35:00,39.7,32.4,30.39,SSE,157,2.0,2.0,75,0.00,,,0.00,Wunderground v.1.15,2013-01-17 23:35:00,
2013-01-17 17:40:00,39.3,32.7,30.39,ESE,121,3.0,3.0,77,0.00,,,0.00,Wunderground v.1.15,2013-01-17 23:40:00,
2013-01-17 17:50:00,37.9,32.0,30.39,SE,128,2.0,18.0,79,0.00,,,0.00,Wunderground v.1.15,2013-01-17 23:50:00,
2013-01-17 18:00:00,37.1,32.1,30.39,ESE,123,2.0,18.0,82,0.00,,,0.00,Wunderground v.1.15,2013-01-18 00:00:00,
2013-01-17 18:05:00,36.9,32.2,30.39,ESE,107,3.0,18.0,83,0.00,,,0.00,Wunderground v.1.15,2013-01-18 00:05:00,
2013-01-17 18:10:00,36.7,32.0,30.38,ESE,107,4.0,4.0,83,0.00,,,0.00,Wunderground v.1.15,2013-01-18 00:10:00,
2013-01-17 18:15:00,36.5,32.1,30.38,ESE,106,3.0,18.0,84,0.00,,,0.00,Wunderground v.1.15,2013-01-18 00:15:00,
2013-01-17 18:20:00,36.3,31.9,30.39,ESE,106,3.0,18.0,84,0.00,,,0.00,Wunderground v.1.15,2013-01-18 00:20:00,
2013-01-17 18:25:00,36.2,32.1,30.39,ESE,105,3.0,18.0,85,0.00,,,0.00,Wunderground v.1.15,2013-01-18 00:25:00,
2013-01-17 18:35:00,35.9,31.8,30.39,East,99,3.0,4.0,85,0.00,,,0.00,Wunderground v.1.15,2013-01-18 00:35:00,
2013-01-17 18:40:00,35.7,31.9,30.39,East,96,4.0,18.0,86,0.00,,,0.00,Wunderground v.1.15,2013-01-18 00:40:00,
2013-01-17 18:45:00,35.5,31.7,30.39,East,97,3.0,18.0,86,0.00,,,0.00,Wunderground v.1.15,2013-01-18 00:45:00,
2013-01-17 18:55:00,35.1,31.3,30.39,East,97,2.0,18.0,86,0.00,,,0.00,Wunderground v.1.15,2013-01-18 00:55:00,
2013-01-17 19:00:00,34.9,31.1,30.39,East,97,1.0,1.0,86,0.00,,,0.00,Wunderground v.1.15,2013-01-18 01:00:00,
2013-01-17 19:10:00,34.5,31.0,30.38,East,97,0.0,18.0,87,0.00,,,0.00,Wunderground v.1.15,2013-01-18 01:10:00,
2013-01-17 19:15:00,34.5,31.3,30.38,East,97,1.0,18.0,88,0.00,,,0.00,Wunderground v.1.15,2013-01-18 01:15:00,
2013-01-17 19:20:00,34.5,31.3,30.38,East,97,1.0,18.0,88,0.00,,,0.00,Wunderground v.1.15,2013-01-18 01:20:00,
2013-01-17 19:25:00,34.5,31.3,30.38,East,97,1.0,18.0,88,0.00,,,0.00,Wunderground v.1.15,2013-01-18 01:25:00,
2013-01-17 19:35:00,34.8,31.6,30.38,East,97,3.0,4.0,88,0.00,,,0.00,Wunderground v.1.15,2013-01-18 01:35:00,
2013-01-17 19:45:00,34.8,31.6,30.38,East,97,2.0,18.0,88,0.00,,,0.00,Wunderground v.1.15,2013-01-18 01:45:00,
2013-01-17 19:50:00,34.7,31.5,30.37,East,97,2.0,2.0,88,0.00,,,0.00,Wunderground v.1.15,2013-01-18 01:50:00,
2013-01-17 19:55:00,34.6,31.4,30.37,East,97,1.0,18.0,88,0.00,,,0.00,Wunderground v.1.15,2013-01-18 01:55:00,
2013-01-17 20:00:00,34.6,31.4,30.37,East,97,1.0,18.0,88,0.00,,,0.00,Wunderground v.1.15,2013-01-18 02:00:00,
2013-01-17 20:05:00,34.6,31.4,30.36,ESE,102,2.0,18.0,88,0.00,,,0.00,Wunderground v.1.15,2013-01-18 02:05:00,
2013-01-17 20:15:00,34.8,31.6,30.36,ESE,113,3.0,18.0,88,0.00,,,0.00,Wunderground v.1.15,2013-01-18 02:15:00,
2013-01-17 20:20:00,34.9,31.7,30.36,ESE,116,4.0,4.0,88,0.00,,,0.00,Wunderground v.1.15,2013-01-18 02:20:00,
2013-01-17 20:25:00,34.8,31.6,30.36,ESE,123,4.0,18.0,88,0.00,,,0.00,Wunderground v.1.15,2013-01-18 02:25:00,
2013-01-17 20:30:00,34.7,31.5,30.35,ESE,123,4.0,18.0,88,0.00,,,0.00,Wunderground v.1.15,2013-01-18 02:30:00,
2013-01-17 20:40:00,34.7,31.5,30.35,SE,125,3.0,3.0,88,0.00,,,0.00,Wunderground v.1.15,2013-01-18 02:40:00,
2013-01-17 20:50:00,34.2,31.0,30.35,SE,133,2.0,18.0,88,0.00,,,0.00,Wunderground v.1.15,2013-01-18 02:50:00,
2013-01-17 20:55:00,34.1,30.9,30.35,SE,134,3.0,18.0,88,0.00,,,0.00,Wunderground v.1.15,2013-01-18 02:55:00,
2013-01-17 21:00:00,33.9,31.0,30.35,SE,134,3.0,3.0,89,0.00,,,0.00,Wunderground v.1.15,2013-01-18 03:00:00,
2013-01-17 21:05:00,33.9,31.0,30.35,SE,134,2.0,18.0,89,0.00,,,0.00,Wunderground v.1.15,2013-01-18 03:05:00,
2013-01-17 21:10:00,33.8,30.9,30.35,SE,134,1.0,1.0,89,0.00,,,0.00,Wunderground v.1.15,2013-01-18 03:10:00,
2013-01-17 21:15:00,33.7,30.8,30.35,SE,134,0.0,18.0,89,0.00,,,0.00,Wunderground v.1.15,2013-01-18 03:15:00,
2013-01-17 21:25:00,33.5,30.9,30.34,SE,134,0.0,18.0,90,0.00,,,0.00,Wunderground v.1.15,2013-01-18 03:25:00,
2013-01-17 21:30:00,33.4,30.8,30.34,SE,134,0.0,18.0,90,0.00,,,0.00,Wunderground v.1.15,2013-01-18 03:30:00,
2013-01-17 21:35:00,33.3,30.7,30.34,SE,134,0.0,18.0,90,0.00,,,0.00,Wunderground v.1.15,2013-01-18 03:35:00,
2013-01-17 21:45:00,32.9,30.3,30.34,SE,134,0.0,18.0,90,0.00,,,0.00,Wunderground v.1.15,2013-01-18 03:45:00,
2013-01-17 21:50:00,32.7,30.1,30.34,SE,134,0.0,18.0,90,0.00,,,0.00,Wunderground v.1.15,2013-01-18 03:50:00,
2013-01-17 22:00:00,32.4,30.1,30.33,SE,134,1.0,18.0,91,0.00,,,0.00,Wunderground v.1.15,2013-01-18 04:00:00,
2013-01-17 22:05:00,32.2,29.9,30.33,SE,134,2.0,18.0,91,0.00,,,0.00,Wunderground v.1.15,2013-01-18 04:05:00,
2013-01-17 22:10:00,32.1,29.8,30.33,SE,139,3.0,18.0,91,0.00,,,0.00,Wunderground v.1.15,2013-01-18 04:10:00,
2013-01-17 22:15:00,32.3,30.2,30.33,SSE,153,4.0,18.0,92,0.00,,,0.00,Wunderground v.1.15,2013-01-18 04:15:00,
2013-01-17 22:20:00,32.5,30.4,30.32,SSE,163,4.0,18.0,92,0.00,,,0.00,Wunderground v.1.15,2013-01-18 04:20:00,
2013-01-17 22:30:00,32.4,30.3,30.32,SSE,165,4.0,18.0,92,0.00,,,0.00,Wunderground v.1.15,2013-01-18 04:30:00,
2013-01-17 22:35:00,32.4,30.3,30.32,SSE,166,4.0,18.0,92,0.00,,,0.00,Wunderground v.1.15,2013-01-18 04:35:00,
2013-01-17 22:40:00,32.5,30.2,30.32,South,170,5.0,5.0,91,0.00,,,0.00,Wunderground v.1.15,2013-01-18 04:40:00,
2013-01-17 22:50:00,32.4,30.1,30.32,South,171,5.0,18.0,91,0.00,,,0.00,Wunderground v.1.15,2013-01-18 04:50:00,
2013-01-17 22:55:00,32.6,30.3,30.31,SSE,167,5.0,18.0,91,0.00,,,0.00,Wunderground v.1.15,2013-01-18 04:55:00,
2013-01-17 23:00:00,32.7,30.4,30.31,South,169,6.0,18.0,91,0.00,,,0.00,Wunderground v.1.15,2013-01-18 05:00:00,
2013-01-17 23:05:00,32.8,30.5,30.31,South,171,5.0,18.0,91,0.00,,,0.00,Wunderground v.1.15,2013-01-18 05:05:00,
2013-01-17 23:15:00,32.9,30.3,30.31,SSE,167,5.0,18.0,90,0.00,,,0.00,Wunderground v.1.15,2013-01-18 05:15:00,
2013-01-17 23:20:00,32.8,30.2,30.30,SSE,167,5.0,18.0,90,0.00,,,0.00,Wunderground v.1.15,2013-01-18 05:20:00,
2013-01-17 23:25:00,32.7,30.1,30.30,SSE,167,4.0,18.0,90,0.00,,,0.00,Wunderground v.1.15,2013-01-18 05:25:00,
2013-01-17 23:30:00,32.5,29.9,30.30,SSE,167,4.0,4.0,90,0.00,,,0.00,Wunderground v.1.15,2013-01-18 05:30:00,
2013-01-17 23:40:00,32.2,29.6,30.30,SSE,165,4.0,18.0,90,0.00,,,0.00,Wunderground v.1.15,2013-01-18 05:40:00,
2013-01-17 23:45:00,32.3,29.7,30.30,SSE,167,5.0,18.0,90,0.00,,,0.00,Wunderground v.1.15,2013-01-18 05:45:00,
2013-01-17 23:55:00,32.3,29.7,30.29,South,169,4.0,5.0,90,0.00,,,0.00,Wunderground v.1.15,2013-01-18 05:55:00,